Regional Weather Roundup
Issued by NWS

Home | Current Version | Previous Version | Graphics & Text | Print | Product List | Glossary On
Versions: 1 2 3 4 5 6 7 8 9 10 11 12 13 14 15 16 17 18 19 20 21 22 23 24 25 26 27 28 29 30 31 32 33 34 35 36 37 38 39 40 41 42 43 44 45 46 47 48 49 50
000
ASUS43 KDMX 152107
RWRIA

WEATHER ROUNDUP FOR IOWA
NATIONAL WEATHER SERVICE DES MOINES IA
400 PM CDT MON SEP 15 2014

NOTE: "FAIR" INDICATES FEW OR NO CLOUDS BELOW 12,000 FEET WITH NO
SIGNIFICANT WEATHER AND/OR OBSTRUCTIONS TO VISIBILITY.

* - THESE STATIONS ARE NOT NWS STATIONS...THUS NOT UNDER NWS
QUALITY CONTROL.  THEY ALSO DO NOT REPORT WEATHER SUCH
AS PRECIPITATION OR FOG.

IAZ001>003-012>014-020>022-031>034-043>046-152200-
   NORTHWEST IOWA

CITY           SKY/WX    TMP DP  RH WIND       PRES   REMARKS
CARROLL *      CLOUDY    59  45  58 N14       30.22F
CHEROKEE *       N/A     61  41  48 N10       30.24S
DENISON *      PTSUNNY   59  46  63 N10       30.21F
LE MARS *      PTSUNNY   61  41  48 N9G15     30.25F
ORANGE CITY *  PTSUNNY   63  36  36 N9        30.24F
SHELDON *      PTSUNNY   61  41  48 NE8G15    30.23F
SIOUX CITY     CLOUDY    61  42  49 NE10      30.25F
SPENCER          N/A     61  41  47 N10       30.24S
STORM LAKE *   CLOUDY    59  48  67 N7        30.23F
$$

IAZ055>058-069>071-079>083-090>094-152200-
   SOUTHWEST IOWA

CITY           SKY/WX    TMP DP  RH WIND       PRES   REMARKS
ATLANTIC *     CLOUDY    59  48  67 N13G18    30.22S
AUDUBON *      CLOUDY    61  52  72 NE9       30.23F
CLARINDA *     CLOUDY    64  50  59 N14G22    30.21S
COUNCIL BLFS * PTSUNNY   63  48  59 N16       30.22S
CRESTON *      CLOUDY    59  50  72 N14       30.20S
HARLAN  *      CLOUDY    59  48  67 N9G15     30.26S
LAMONI         CLOUDY    59  51  75 N17       30.17S
SHENANDOAH *   CLOUDY    64  52  63 N12G20    30.22R
$$

IAZ047>049-059>061-072>074-084-152200-
   CENTRAL IOWA

CITY           SKY/WX    TMP DP  RH WIND       PRES   REMARKS
AMES           CLOUDY    61  47  59 N14       30.20S
ANKENY *       PTSUNNY   61  48  63 N14G21    30.19R
CHARITON *     PTSUNNY   59  52  77 N15G24    30.17S
DES MOINES     PTSUNNY   62  47  57 N12       30.19R
GRINNELL*      CLOUDY    59  48  67 N13G21    30.18R
KNOXVILLE *    CLOUDY    59  50  72 N10G17    30.16S
MARSHALLTOWN   PTSUNNY   58  47  66 N14       30.18S
PELLA *        CLOUDY    61  52  72 N7        30.18S
PERRY *        CLOUDY    59  46  63 N10       30.21S
$$

IAZ004>006-015-016-023>025-035-036-152200-
   NORTH CENTRAL IOWA

CITY           SKY/WX    TMP DP  RH WIND       PRES   REMARKS
ALGONA *       PTSUNNY   59  41  51 N12       30.22F
CLARION *        N/A     57  45  62 N9        30.21F
ESTHERVILLE    CLOUDY    59  39  47 N8        30.22F
FORT DODGE *   CLOUDY    57  45  62 N5        30.23S
MASON CITY     PTSUNNY   60  45  57 N8        30.21F
FOREST CITY *  CLOUDY    59  46  63 N9        30.21S
IOWA FALLS *   CLOUDY    57  45  62 N7G16     30.21S
$$

IAZ007>011-017>019-026>030-037>042-050>054-066-152200-
   NORTHEAST IOWA

CITY           SKY/WX    TMP DP  RH WIND       PRES   REMARKS
CEDAR RAPIDS   PTSUNNY   58  51  78 N14       30.15R
CHARLES CITY * PTSUNNY   59  43  55 N10       30.19S
CLINTON *      CLOUDY    55  48  76 N12       30.14R
DECORAH *      CLOUDY    57  45  62 VRB7G13   30.17S
DUBUQUE        PTSUNNY   56  52  86 N12       30.14F
MONTICELLO *   CLOUDY    57  50  77 N8G15     30.15S
OELWEIN *      PTSUNNY   59  45  58 N13G20    30.17F
WATERLOO       CLOUDY    59  45  59 N14G23    30.17S
$$

IAZ064-065-067-068-078-152200-
   EAST CENTRAL IOWA

CITY           SKY/WX    TMP DP  RH WIND       PRES   REMARKS
DAVENPORT      CLOUDY    58  50  75 N17       30.12R
IOWA CITY      PTSUNNY   60  52  74 N15G24    30.14R
MT. PLEASANT * CLOUDY    66  55  68 N16       30.10R
MUSCATINE *    CLOUDY    61  52  72 NE15G23   30.11R
QUAD CITIES    CLOUDY    60  52  74 N15G25    30.09R
$$

IAZ062-063-075>077-085>089-095>099-152200-
   SOUTHEAST IOWA

CITY           SKY/WX    TMP DP  RH WIND       PRES   REMARKS
BURLINGTON     PTSUNNY   67  58  72 N8        30.07S
FAIRFIELD *    CLOUDY    63  54  72 N13       30.12R
FORT MADISON * CLOUDY    70  57  64 NW6       30.08S
KEOKUK *       CLOUDY    66  61  82 N7        30.07S
OSKALOOSA *    CLOUDY    59  52  77 N17G23    30.15R
CENTERVILLE *  CLOUDY    59  55  88 NW15      30.16R
OTTUMWA        CLOUDY    61  53  75 N15G25    30.13R
WASHINGTON *   CLOUDY    63  55  77 N16       30.11R
$$

ABBREVIATIONS USED IN REMARKS
   TC - TEMPERATURES IN CELSIUS
  WCI - WIND CHILL INDEX
   HX - HEAT INDEX
  VSB - VISIBILITY
$$




USA.gov is the U.S. government's official web portal to all federal, state and local government web resources and services.